Location: İstanbul
(41.0082°N, 28.9784°E)
Time: 21:37:35
(UTC+02:00)

Oscar 11 - Pass Details

Date: 26 October 2021
Orbit: 614 x 623 km, 97.6° (Epoch: 01 December)

Event Time Altitude Azimuth Distance (km) Brightness Sun altitude
Rises 19:06:41 0° 218° (SW) 2,869 11.2 -11.8°
Reaches altitude 10° 19:10:38 10° 255° (WSW) 1,973 11.1 -12.5°
Maximum altitude 19:11:46 11° 271° (W) 1,916 11.0 -12.7°
Drops below altitude 10° 19:12:54 10° 286° (WNW) 1,978 10.8 -12.9°
Sets 19:16:53 0° 323° (NW) 2,893 11.0 -13.7°
